[[{"header":{"parameterUnit":"m.s-1","parameterCategory":2,"la1":30.2991,"la2":30.254,"lo1":-89.0895,"lo2":-89.0444,"dy":0.0017,"dx":0.0017,"nx":28,"ny":28,"refTime":"2025-07-19T21:00:00:Z","depth":"0","parameterNumber":2,"parameterNumberName":"U-component_of_CURRENTS"},"data":[0,0,0,0,0,0,0,0,0,0,0,0,0,0,0,0,0,0,0,0,0,0,0,0,0,0,0,0,0,0,0,0,0,0,0,0,0,0,0,0,0,0,0,0,0,0,0,0,0,0,0,0,0,0,0,0,0,0,0.3554,0.3554,0,0.3529,0.3529,0.3528,0.3496,0.3496,0.3495,0.3495,0.3441,0.344,0.3439,0,0,0,0,0,0,0,0,0,0,0,0,0,0.3554,0.3554,0.3554,0.3554,0.3554,0.3529,0.3529,0.3528,0.3496,0.3496,0.3495,0.3495,0.3441,0.344,0.3438,0,0,0,0,0,0,0,0,0,0,0,0,0,0.3543,0.3554,0.3554,0.3536,0.3534,0.3529,0.3529,0.3528,0.3496,0.3496,0.3495,0.3495,0.3441,0.344,0.3438,0.3441,0,0,0.3433,0.3433,0,0,0,0,0,0,0,0,0.3543,0.3543,0.3538,0.3537,0.3535,0.3516,0.3509,0.3498,0.3497,0.3509,0.3495,0.3494,0.3464,0.3461,0.3456,0.3438,0.3436,0.3433,0.3432,0.3432,0.3431,0,0,0,0,0,0,0,0.3544,0.3543,0.3543,0.3538,0.3536,0.3522,0.352,0.3506,0.3489,0.3508,0.3506,0.3505,0.3463,0.3458,0.3455,0.3435,0.3433,0.3432,0.3431,0.343,0.3523,0.3526,0,0,0,0,0,0,0.3552,0.3544,0.3544,0.3542,0.3539,0.3522,0.352,0.3522,0.349,0.3485,0.3506,0.3504,0.3461,0.3457,0.3453,0.3559,0.3432,0.343,0.3429,0.3519,0.3524,0.3527,0,0,0,0,0,0,0.3552,0.3552,0.3545,0.3543,0.3542,0.3523,0.3526,0.3522,0.353,0.3489,0.3483,0.3519,0.346,0.3455,0.3453,0.3552,0.3429,0.3428,0.3515,0.3521,0.3525,0.3704,0,0,0,0,0,0,0.3552,0.3552,0.3559,0.3544,0.3542,0.3574,0.3526,0.3522,0.353,0.3527,0.3498,0.3492,0.3459,0.3456,0.3452,0.3548,0.3427,0.3511,0.3518,0.3524,0.3694,0.3715,0.3732,0,0,0,0,0,0.3552,0.3569,0.356,0.356,0.3552,0.3576,0.3575,0.3557,0.3531,0.3557,0.3521,0.3493,0.3496,0.3456,0.3451,0.3549,0.3508,0.3516,0.3523,0.3685,0.371,0.3732,0,0,0,0,0,0,0.3569,0.3567,0.3557,0.3571,0.3586,0.3572,0.3585,0.3572,0.3564,0.3557,0.3507,0.35,0.3548,0.3513,0.3471,0.3597,0.351,0.3517,0.3635,0.3659,0.3678,0.3706,0.3425,0,0,0,0,0,0.3577,0.3598,0.3593,0.3613,0.3616,0.3603,0.3608,0.3606,0.3594,0.359,0.3571,0.356,0.3576,0.3584,0.3582,0.3629,0.363,0.3699,0.3718,0.3735,0.3756,0.384,0.3869,0.3553,0.3552,0.3552,0,0,0.36,0.3594,0.3611,0.362,0.362,0.3656,0.3606,0.3633,0.3684,0.3585,0.3638,0.3618,0.3599,0.3664,0.3686,0.3647,0.3827,0.3744,0.3759,0.3771,0.3851,0.3882,0.3909,0.3558,0.3557,0.3556,0,0,0.3641,0.364,0.3665,0.3684,0.3697,0.3705,0.372,0.3726,0.3749,0.3789,0.3749,0.3781,0.3786,0.3813,0.3821,0.3944,0.3921,0.3956,0.4084,0.4166,0.4193,0.4217,0.4267,0.4294,0.3973,0.3973,0.3974,0,0.3658,0.3686,0.3682,0.3707,0.3733,0.3734,0.3779,0.3818,0.3832,0.3873,0.3833,0.3893,0.3872,0.3974,0.4022,0.3995,0.4017,0.3996,0.4194,0.4217,0.4238,0.4284,0.4311,0.3983,0.3982,0.3981,0.398,0,0.3716,0.3744,0.3765,0.3804,0.3839,0.3886,0.3931,0.3993,0.4015,0.4048,0.4146,0.4123,0.4158,0.4183,0.4136,0.4295,0.4254,0.4204,0.4137,0.4281,0.4319,0.4345,0.3997,0.3993,0.399,0.3988,0,0,0.3717,0.3792,0.3794,0.3839,0.3895,0.3936,0.4047,0.4148,0.4234,0.4283,0.4385,0.4442,0.4426,0.4434,0.4404,0.4484,0.465,0.4419,0.4419,0.4473,0.4825,0.4646,0.4654,0.4638,0.4643,0.4647,0.4793,0,0.3755,0.3848,0.386,0.3966,0.4028,0.4075,0.4179,0.4281,0.4357,0.4465,0.4512,0.4582,0.4527,0.4543,0.4625,0.4628,0.4724,0.4614,0.4672,0.4674,0.4501,0.4681,0.4377,0.4468,0.4817,0.4821,0.4824,0,0.3791,0.3853,0.3966,0.4077,0.4101,0.4159,0.4327,0.4419,0.4579,0.4636,0.4733,0.4746,0.4865,0.4782,0.4926,0.4857,0.4872,0.488,0.4884,0.4672,0.4542,0.4379,0.45,0.4394,0.4862,0.4859,0.4856,0,0.3832,0.3918,0.4023,0.4062,0.4191,0.4247,0.4315,0.4473,0.4568,0.474,0.4814,0.494,0.4994,0.5061,0.506,0.5016,0.5197,0.5128,0.4997,0.4983,0.4711,0.4662,0.4733,0.5269,0.5269,0.5269,0.5268,0,0.3883,0.3955,0.4046,0.4113,0.4215,0.4285,0.441,0.4515,0.4659,0.4761,0.4884,0.4972,0.5072,0.5157,0.515,0.5145,0.5275,0.5064,0.5031,0.4761,0.4718,0.4594,0.4561,0.5274,0.5273,0.5272,0.5271,0,0.3917,0.3993,0.41,0.4217,0.4245,0.4318,0.442,0.4514,0.4665,0.4799,0.4852,0.5045,0.5146,0.5215,0.5318,0.5238,0.5093,0.5219,0.4875,0.4798,0.4516,0.4502,0.4401,0.4291,0.5109,0.5106,0.5103,0,0.3943,0.4019,0.4147,0.4189,0.4224,0.4316,0.4375,0.4507,0.4583,0.4808,0.4859,0.5036,0.5082,0.5184,0.509,0.5069,0.4998,0.4797,0.4656,0.4503,0.4468,0.4342,0.425,0.4382,0.4374,0.4367,0.4361,0,0.3992,0.4046,0.4141,0.4206,0.4254,0.4291,0.4363,0.4424,0.4568,0.4663,0.4762,0.4819,0.4895,0.4732,0.4728,0.4673,0.4529,0.4651,0.4602,0.4009,0.3772,0.3643,0.4282,0.43,0.4306,0.431,0.4314,0.4316,0.4018,0.4067,0.4177,0.4201,0.424,0.4219,0.4182,0.4254,0.4309,0.4336,0.4513,0.4444,0.4406,0.4324,0.4269,0.399,0.4092,0.3837,0.3872,0.379,0.3557,0.4046,0.3944,0.3948,0.3952,0.3955,0.3957,0,0.4043,0.4096,0.4143,0.4153,0.4085,0.4121,0.4125,0.4028,0.3971,0.4017,0.4002,0.383,0.3668,0.3635,0.3406,0.3241,0.3109,0.3179,0.2963,0.2945,0.3467,0.3305,0.2924,0.2924,0.2924,0.2924,0.2925,0.2925,0.4091,0.4135,0.4116,0.3974,0.3923,0.3737,0.367,0.3574,0.3534,0.3332,0.3165,0.3145,0.3212,0.3069,0.2846,0.2765,0.2634,0.2427,0.2583,0.2966,0.3031,0.3092,0.2935,0.2482,0.2482,0.1858,0.1854,0.185]},{"header":{"parameterUnit":"m.s-1","parameterCategory":2,"la1":30.2991,"la2":30.254,"lo1":-89.0895,"lo2":-89.0444,"dy":0.0017,"dx":0.0017,"nx":28,"ny":28,"refTime":"2025-07-19T21:00:00:Z","depth":"0","parameterNumber":3,"parameterNumberName":"V-component_of_CURRENTS"},"data":[0,0,0,0,0,0,0,0,0,0,0,0,0,0,0,0,0,0,0,0,0,0,0,0,0,0,0,0,0,0,0,0,0,0,0,0,0,0,0,0,0,0,0,0,0,0,0,0,0,0,0,0,0,0,0,0,0,0,0.0405,0.0405,0,0.0366,0.0366,0.0365,0.0336,0.0336,0.0335,0.0335,0.0295,0.0294,0.0293,0,0,0,0,0,0,0,0,0,0,0,0,0,0.0383,0.0384,0.0405,0.0405,0.0404,0.0366,0.0366,0.0365,0.0336,0.0336,0.0335,0.0335,0.0295,0.0294,0.0293,0,0,0,0,0,0,0,0,0,0,0,0,0,0.0373,0.0385,0.0405,0.0386,0.0383,0.0366,0.0366,0.0365,0.0336,0.0336,0.0335,0.0335,0.0296,0.0294,0.0293,0.0291,0,0,0.0289,0.0288,0,0,0,0,0,0,0,0,0.0374,0.0374,0.0389,0.0387,0.0385,0.0356,0.0343,0.034,0.0336,0.0353,0.0335,0.0335,0.0316,0.0313,0.0305,0.0289,0.0287,0.0289,0.0288,0.0287,0.0287,0,0,0,0,0,0,0,0.0375,0.0375,0.0389,0.0388,0.0386,0.0355,0.0354,0.0342,0.0336,0.0352,0.035,0.0347,0.0315,0.0307,0.0304,0.0287,0.0289,0.0288,0.0287,0.0286,0.0289,0.029,0,0,0,0,0,0,0.0385,0.0376,0.039,0.0388,0.0379,0.0356,0.0354,0.0365,0.0336,0.0332,0.0347,0.0345,0.0309,0.0306,0.0303,0.0317,0.0287,0.0286,0.0285,0.0288,0.0289,0.029,0,0,0,0,0,0,0.0385,0.0388,0.0392,0.0381,0.0379,0.0357,0.0369,0.0364,0.0362,0.0333,0.0328,0.0349,0.0309,0.0304,0.0292,0.0315,0.0286,0.0284,0.0287,0.0289,0.029,0.0335,0,0,0,0,0,0,0.0385,0.0388,0.0394,0.0382,0.038,0.0394,0.0369,0.0364,0.036,0.0358,0.0333,0.0329,0.0308,0.0294,0.029,0.0312,0.0283,0.0286,0.0288,0.0289,0.0332,0.0337,0.0342,0,0,0,0,0,0.0385,0.04,0.0395,0.0396,0.0391,0.0395,0.0391,0.0373,0.0361,0.0367,0.0341,0.033,0.0302,0.0293,0.0289,0.0311,0.0285,0.0287,0.0289,0.033,0.0336,0.0342,0,0,0,0,0,0,0.0389,0.0398,0.0392,0.0408,0.0406,0.039,0.039,0.038,0.0364,0.0362,0.0331,0.0325,0.0322,0.0312,0.0302,0.0318,0.0297,0.0298,0.0329,0.0335,0.034,0.0371,0.0282,0,0,0,0,0,0.0395,0.0411,0.041,0.0421,0.0424,0.0408,0.0405,0.0399,0.0385,0.0378,0.0359,0.0342,0.0327,0.0326,0.031,0.0318,0.0329,0.0334,0.0338,0.0343,0.0367,0.0405,0.0416,0.0297,0.0297,0.0297,0,0,0.0402,0.0405,0.0415,0.0423,0.0418,0.0435,0.0406,0.0413,0.0425,0.0377,0.0381,0.0353,0.033,0.0332,0.0333,0.0328,0.0379,0.0345,0.0349,0.0371,0.0408,0.042,0.043,0.0298,0.0298,0.0298,0,0,0.0424,0.0427,0.0448,0.0454,0.0457,0.0454,0.0461,0.0455,0.045,0.0449,0.0416,0.0408,0.0384,0.0379,0.0371,0.0399,0.0396,0.0391,0.045,0.0486,0.0497,0.0507,0.0521,0.0532,0.0403,0.0403,0.0403,0,0.0429,0.0456,0.0453,0.0473,0.0484,0.0469,0.0498,0.0493,0.0482,0.0494,0.046,0.0449,0.0414,0.0439,0.0433,0.0413,0.0424,0.0426,0.0494,0.0504,0.0513,0.0526,0.0537,0.0405,0.0405,0.0405,0.0405,0,0.047,0.0488,0.0501,0.0528,0.0541,0.0562,0.0565,0.0578,0.0567,0.0566,0.058,0.0534,0.0543,0.0518,0.0472,0.0523,0.0506,0.0488,0.0482,0.0528,0.0538,0.0549,0.0409,0.0408,0.0407,0.0407,0,0,0.0492,0.0526,0.0529,0.0554,0.0575,0.0596,0.0627,0.0659,0.0704,0.0676,0.0734,0.0675,0.0666,0.0657,0.0614,0.0625,0.0664,0.0581,0.0582,0.06,0.0735,0.0664,0.0668,0.0659,0.0661,0.0663,0.0711,0,0.0524,0.0575,0.0584,0.0639,0.0671,0.0681,0.0722,0.0752,0.0766,0.0817,0.0788,0.0816,0.0717,0.073,0.0724,0.0696,0.0697,0.0652,0.0685,0.0686,0.0621,0.0681,0.064,0.0675,0.0721,0.0723,0.0725,0,0.0567,0.0593,0.0651,0.0714,0.0732,0.0762,0.0847,0.0884,0.0947,0.0966,0.0994,0.098,0.0998,0.0904,0.0896,0.0873,0.0807,0.0766,0.0767,0.07,0.0636,0.0639,0.0692,0.0578,0.0741,0.074,0.0738,0,0.0601,0.0648,0.0697,0.0715,0.078,0.0814,0.0856,0.0927,0.1,0.1076,0.1153,0.1153,0.1196,0.1125,0.102,0.0975,0.1005,0.0944,0.0815,0.0808,0.0782,0.0769,0.0737,0.0934,0.0934,0.0934,0.0934,0,0.0647,0.0686,0.0712,0.0744,0.0824,0.0854,0.0964,0.1012,0.1124,0.1255,0.1237,0.1346,0.1255,0.1252,0.1111,0.1012,0.1087,0.0848,0.083,0.0791,0.0779,0.0683,0.0593,0.0935,0.0935,0.0935,0.0934,0,0.069,0.0705,0.0767,0.0823,0.0845,0.0907,0.1035,0.1138,0.1224,0.1403,0.1447,0.1531,0.154,0.1415,0.1331,0.1158,0.096,0.0975,0.0919,0.0892,0.0635,0.0549,0.05,0.0444,0.0861,0.0859,0.0858,0,0.0721,0.0754,0.0822,0.0875,0.0899,0.0989,0.1085,0.118,0.1311,0.1524,0.1639,0.1705,0.1772,0.1613,0.1342,0.1115,0.0962,0.0888,0.0779,0.0638,0.053,0.0479,0.0432,0.076,0.0758,0.0756,0.0755,0,0.0782,0.08,0.0854,0.0956,0.1041,0.1159,0.1292,0.1406,0.1568,0.1729,0.1939,0.2004,0.1863,0.1636,0.1299,0.1118,0.0782,0.0847,0.0742,0.0485,0.0393,0.0325,0.0694,0.0742,0.0743,0.0744,0.0745,0.0746,0.0829,0.0876,0.0949,0.105,0.1163,0.1326,0.1435,0.1611,0.1823,0.2067,0.2123,0.2222,0.1871,0.1426,0.1175,0.0682,0.0695,0.0502,0.0422,0.0396,0.0299,0.0618,0.061,0.061,0.0611,0.0611,0.0612,0,0.0889,0.095,0.1049,0.1178,0.1321,0.1366,0.1585,0.1717,0.1963,0.2165,0.232,0.2162,0.1732,0.129,0.062,0.0303,0.0214,0.015,0.0085,0.0067,0.0398,0.0348,0.0236,0.0236,0.0236,0.0236,0.0236,0.0236,0.093,0.1022,0.1068,0.1285,0.1393,0.1569,0.1692,0.19,0.2063,0.2256,0.2281,0.229,0.1931,0.0824,0.0128,-0.002,-0.0191,-0.0269,-0.032,-0.01,-0.0072,-0.0046,-0.011,-0.0317,-0.0318,-0.0606,-0.0609,-0.0612]}],[{"header":{"parameterUnit":"m.s-1","parameterCategory":2,"la1":30.2991,"la2":30.254,"lo1":-89.0895,"lo2":-89.0444,"dy":0.0017,"dx":0.0017,"nx":28,"ny":28,"refTime":"2025-07-19T21:00:00:Z","depth":"2","parameterNumber":2,"parameterNumberName":"U-component_of_CURRENTS"},"data":[0,0,0,0,0,0,0,0,0,0,0,0,0,0,0,0,0,0,0,0,0,0,0,0,0,0,0,0,0,0,0,0,0,0,0,0,0,0,0,0,0,0,0,0,0,0,0,0,0,0,0,0,0,0,0,0,0,0,0.2702,0.2703,0,0.2708,0.2707,0.2706,0.2642,0.2641,0.264,0.2639,0.2659,0.266,0.2661,0,0,0,0,0,0,0,0,0,0,0,0,0,0.2673,0.2673,0.2702,0.2703,0.2704,0.2708,0.2707,0.2706,0.2642,0.2641,0.264,0.2638,0.2658,0.266,0.2661,0,0,0,0,0,0,0,0,0,0,0,0,0,0.2674,0.2672,0.2702,0.2679,0.2678,0.2708,0.2707,0.2706,0.2642,0.2641,0.2639,0.2638,0.2658,0.266,0.2662,0.2703,0,0,0.2668,0.2669,0,0,0,0,0,0,0,0,0.2674,0.2674,0.2681,0.2681,0.2679,0.2681,0.2705,0.2709,0.2642,0.2646,0.2639,0.2637,0.2674,0.2675,0.2666,0.2704,0.2705,0.2668,0.267,0.267,0.2671,0,0,0,0,0,0,0,0.2674,0.2674,0.2695,0.2683,0.2682,0.2682,0.2679,0.2704,0.2661,0.2645,0.2643,0.2659,0.2672,0.2664,0.2666,0.2705,0.2668,0.267,0.2671,0.2672,0.2736,0.2737,0,0,0,0,0,0,0.2691,0.2673,0.2695,0.2696,0.2683,0.2684,0.2681,0.2674,0.266,0.266,0.266,0.2656,0.2661,0.2664,0.2667,0.2757,0.267,0.2672,0.2674,0.2736,0.2736,0.2737,0,0,0,0,0,0,0.269,0.2692,0.2695,0.2693,0.2695,0.2687,0.268,0.2675,0.2691,0.2673,0.267,0.2685,0.266,0.2664,0.2695,0.2756,0.2673,0.2675,0.2735,0.2736,0.2737,0.2912,0,0,0,0,0,0,0.2689,0.2691,0.2706,0.2694,0.2696,0.2733,0.2682,0.2677,0.2706,0.2701,0.2694,0.2692,0.2659,0.2692,0.2697,0.2757,0.2677,0.2735,0.2736,0.2736,0.2906,0.2918,0.2929,0,0,0,0,0,0.2687,0.2696,0.2705,0.271,0.2711,0.2736,0.2737,0.272,0.271,0.2727,0.271,0.2693,0.2699,0.2695,0.2701,0.2763,0.2734,0.2735,0.2736,0.29,0.2916,0.2929,0,0,0,0,0,0,0.2679,0.2692,0.27,0.2711,0.2741,0.2729,0.2736,0.2749,0.275,0.2733,0.2719,0.2717,0.2762,0.2729,0.2725,0.2772,0.2708,0.271,0.283,0.2845,0.2856,0.2842,0.2679,0,0,0,0,0,0.2694,0.2709,0.2729,0.2745,0.275,0.2758,0.2773,0.2767,0.2767,0.2765,0.2766,0.2751,0.2767,0.2781,0.277,0.2822,0.2835,0.2852,0.2864,0.2875,0.286,0.3011,0.3039,0.274,0.274,0.274,0,0,0.2681,0.271,0.2706,0.2749,0.2749,0.278,0.2759,0.2775,0.2807,0.2771,0.28,0.2803,0.2786,0.2824,0.2841,0.2813,0.2954,0.2876,0.2887,0.2865,0.3016,0.3046,0.3072,0.2741,0.2741,0.2741,0,0,0.2699,0.2699,0.2727,0.2741,0.2781,0.2801,0.2824,0.2833,0.2834,0.2879,0.2857,0.2899,0.291,0.2921,0.2928,0.3003,0.3013,0.2995,0.3062,0.3212,0.324,0.3264,0.3284,0.3309,0.3006,0.3006,0.3006,0,0.2705,0.2727,0.2743,0.2773,0.2783,0.2823,0.2847,0.2872,0.2899,0.2914,0.2895,0.2953,0.2954,0.3034,0.3044,0.304,0.3082,0.3027,0.3238,0.3262,0.3284,0.3299,0.3324,0.3015,0.3014,0.3013,0.3012,0,0.2723,0.2749,0.2755,0.2816,0.2845,0.2856,0.2896,0.2929,0.2956,0.2991,0.3061,0.3075,0.3111,0.3132,0.3113,0.3264,0.3225,0.3248,0.3223,0.3327,0.3331,0.3356,0.3027,0.3024,0.3021,0.3019,0,0,0.2713,0.2763,0.2766,0.2791,0.2846,0.2872,0.2926,0.2997,0.3076,0.3096,0.3187,0.3223,0.3251,0.3256,0.3274,0.339,0.3581,0.339,0.3394,0.3442,0.3845,0.3629,0.3632,0.3685,0.3691,0.3696,0.3774,0,0.273,0.2776,0.2811,0.2866,0.2876,0.291,0.2987,0.3052,0.3133,0.3236,0.326,0.3363,0.3301,0.3367,0.3467,0.3566,0.3657,0.3551,0.3702,0.3703,0.3533,0.3659,0.3387,0.342,0.3797,0.3801,0.3804,0,0.2714,0.2768,0.2785,0.2884,0.2895,0.2966,0.3081,0.3164,0.3305,0.3346,0.3433,0.3493,0.3607,0.3582,0.3767,0.3716,0.3775,0.3837,0.3843,0.3593,0.3533,0.3379,0.3449,0.3843,0.384,0.3837,0.3834,0,0.2656,0.274,0.2754,0.2759,0.2885,0.2934,0.3053,0.3203,0.3272,0.3464,0.3543,0.3674,0.3768,0.388,0.3925,0.391,0.4128,0.4132,0.3966,0.3946,0.3708,0.3657,0.429,0.429,0.429,0.4289,0.4289,0,0.26,0.2653,0.2736,0.2746,0.2832,0.294,0.3098,0.32,0.3376,0.3482,0.3626,0.3738,0.3876,0.3984,0.4007,0.4014,0.419,0.3977,0.3983,0.3746,0.3701,0.4056,0.4028,0.4292,0.4292,0.4291,0.4291,0,0.2541,0.2561,0.2633,0.2764,0.2791,0.2882,0.3088,0.3212,0.3393,0.3537,0.3594,0.3821,0.3966,0.4017,0.4209,0.4108,0.4158,0.4116,0.3741,0.3699,0.3846,0.3825,0.3963,0.3956,0.3951,0.3947,0.3943,0,0.2508,0.2512,0.2622,0.2648,0.2724,0.2866,0.2955,0.3156,0.3277,0.3569,0.3616,0.384,0.3897,0.402,0.3978,0.3933,0.4059,0.363,0.3542,0.3835,0.3829,0.3816,0.3803,0.3287,0.3278,0.3271,0.3265,0,0.2487,0.2526,0.258,0.2637,0.2706,0.283,0.2997,0.3029,0.326,0.3365,0.3542,0.3633,0.3752,0.3622,0.3565,0.3517,0.3603,0.3475,0.3993,0.3378,0.3197,0.3189,0.3201,0.3201,0.3207,0.3212,0.3215,0.3218,0.2491,0.2518,0.2558,0.2618,0.2699,0.2802,0.2856,0.2989,0.3084,0.3151,0.3318,0.3318,0.3355,0.3142,0.3032,0.2969,0.3218,0.3075,0.31,0.3132,0.3007,0.2824,0.2728,0.2731,0.2734,0.2737,0.2739,0,0.2439,0.25,0.2539,0.2594,0.2668,0.2775,0.2858,0.2824,0.2834,0.289,0.2917,0.2644,0.2555,0.2608,0.2412,0.236,0.2377,0.226,0.229,0.2355,0.2413,0.2254,0.1774,0.177,0.1767,0.1764,0,0,0.2411,0.2423,0.2429,0.2516,0.2597,0.2625,0.2651,0.2559,0.2538,0.2389,0.2333,0.242,0.2527,0.2116,0.2055,0.1893,0.2111,0.1813,0.2598,0.2702,0.2756,0.2899,0.2727,0,0,0,0,0]},{"header":{"parameterUnit":"m.s-1","parameterCategory":2,"la1":30.2991,"la2":30.254,"lo1":-89.0895,"lo2":-89.0444,"dy":0.0017,"dx":0.0017,"nx":28,"ny":28,"refTime":"2025-07-19T21:00:00:Z","depth":"2","parameterNumber":3,"parameterNumberName":"V-component_of_CURRENTS"},"data":[0,0,0,0,0,0,0,0,0,0,0,0,0,0,0,0,0,0,0,0,0,0,0,0,0,0,0,0,0,0,0,0,0,0,0,0,0,0,0,0,0,0,0,0,0,0,0,0,0,0,0,0,0,0,0,0,0,0,0.0047,0.0047,0,0.0019,0.0018,0.0018,-0.0002,-0.0003,-0.0003,-0.0003,-0.0032,-0.0033,-0.0034,0,0,0,0,0,0,0,0,0,0,0,0,0,0.004,0.0041,0.0047,0.0047,0.0046,0.0019,0.0018,0.0018,-0.0002,-0.0003,-0.0003,-0.0003,-0.0032,-0.0033,-0.0034,0,0,0,0,0,0,0,0,0,0,0,0,0,0.003,0.0041,0.0047,0.0033,0.0032,0.0019,0.0018,0.0018,-0.0002,-0.0003,-0.0003,-0.0003,-0.0032,-0.0033,-0.0034,-0.0036,0,0,-0.0037,-0.0037,0,0,0,0,0,0,0,0,0.0031,0.0031,0.0036,0.0034,0.0032,0.0012,0.0005,0.0,-0.0002,0.001,-0.0003,-0.0003,-0.0017,-0.002,-0.0025,-0.0037,-0.0038,-0.0037,-0.0037,-0.0038,-0.0038,0,0,0,0,0,0,0,0.0032,0.0032,0.0036,0.0035,0.0033,0.0013,0.0012,0.0004,-0.0002,0.0009,0.0008,0.0005,-0.0018,-0.0024,-0.0026,-0.0039,-0.0037,-0.0038,-0.0038,-0.0039,-0.0075,-0.0076,0,0,0,0,0,0,0.0039,0.0033,0.0036,0.0035,0.0031,0.0014,0.0012,0.0018,-0.0002,-0.0005,0.0005,0.0004,-0.0022,-0.0024,-0.0027,-0.0028,-0.0038,-0.0039,-0.0039,-0.0075,-0.0075,-0.0076,0,0,0,0,0,0,0.0039,0.004,0.0038,0.0032,0.0031,0.0015,0.0021,0.0018,0.0018,-0.0005,-0.0008,0.0009,-0.0022,-0.0025,-0.0031,-0.0029,-0.0039,-0.004,-0.0074,-0.0075,-0.0076,-0.0032,0,0,0,0,0,0,0.0039,0.004,0.0044,0.0033,0.0032,0.004,0.0021,0.0018,0.0016,0.0015,-0.0003,-0.0006,-0.0023,-0.0029,-0.0032,-0.0031,-0.0041,-0.0074,-0.0075,-0.0075,-0.0033,-0.0031,-0.0029,0,0,0,0,0,0.0039,0.0048,0.0044,0.0044,0.0039,0.0041,0.0038,0.0025,0.0017,0.0023,0.0006,-0.0005,-0.0037,-0.003,-0.0033,-0.0032,-0.0074,-0.0075,-0.0075,-0.0033,-0.0031,-0.0029,0,0,0,0,0,0,0.0046,0.0047,0.0042,0.0051,0.005,0.0038,0.0036,0.0032,0.0023,0.0019,-0.0002,-0.0006,-0.0013,-0.003,-0.0023,-0.0048,-0.006,-0.0062,-0.0028,-0.0025,-0.0024,-0.0009,-0.0042,0,0,0,0,0,0.005,0.0058,0.0055,0.0062,0.0062,0.0051,0.0049,0.0044,0.0035,0.0031,0.0018,-0.0004,-0.002,-0.0027,-0.0043,-0.005,-0.0042,-0.0056,-0.0054,-0.0052,-0.0044,0.001,0.0018,-0.0079,-0.0079,-0.0079,0,0,0.0048,0.0055,0.0054,0.0064,0.0058,0.0068,0.005,0.0053,0.0058,0.003,0.0029,0.0008,-0.002,-0.0031,-0.0036,-0.0043,-0.0032,-0.0053,-0.0051,-0.0044,0.001,0.002,0.0029,-0.0079,-0.0079,-0.0079,0,0,0.0064,0.0061,0.0077,0.0084,0.0089,0.008,0.0085,0.0079,0.0073,0.0072,0.0047,0.0034,0.0008,-0.0008,-0.0022,-0.0019,-0.0021,-0.0036,-0.0013,0.0039,0.0049,0.0057,0.0039,0.0046,-0.0037,-0.0037,-0.0037,0,0.0064,0.0093,0.0081,0.0107,0.0117,0.009,0.0115,0.0101,0.0094,0.0097,0.0077,0.0046,0.0021,0.0015,0.0003,-0.0011,-0.0002,-0.0015,0.0046,0.0055,0.0063,0.0043,0.005,-0.0035,-0.0035,-0.0035,-0.0036,0,0.0102,0.0123,0.0133,0.0156,0.0161,0.0177,0.0163,0.0159,0.0143,0.0136,0.013,0.0092,0.0081,0.0056,0.0026,0.0055,0.0032,0.0049,0.005,0.0076,0.0051,0.0058,-0.0032,-0.0033,-0.0033,-0.0034,0,0,0.0117,0.0153,0.016,0.0188,0.0195,0.0209,0.0205,0.0212,0.0226,0.0194,0.0229,0.0162,0.0148,0.013,0.0093,0.0111,0.0149,0.01,0.0101,0.0097,0.0223,0.0151,0.015,0.0193,0.0196,0.0197,0.0168,0,0.0156,0.0214,0.0223,0.0271,0.0297,0.0283,0.0291,0.0289,0.0274,0.0297,0.0254,0.027,0.0174,0.0185,0.0181,0.0184,0.0175,0.0152,0.0184,0.0183,0.0132,0.016,0.0183,0.0156,0.0175,0.0176,0.0177,0,0.0194,0.0237,0.0288,0.0345,0.0357,0.0376,0.0398,0.0408,0.041,0.0412,0.0399,0.0381,0.0376,0.032,0.0299,0.0295,0.0251,0.0231,0.0231,0.016,0.0126,0.0139,0.0167,0.0188,0.0187,0.0186,0.0185,0,0.0209,0.0284,0.0328,0.0346,0.0394,0.0417,0.044,0.044,0.0486,0.0502,0.0559,0.0514,0.0556,0.0496,0.0401,0.0382,0.0391,0.0374,0.0243,0.0235,0.0257,0.0247,0.0365,0.0365,0.0365,0.0365,0.0365,0,0.0241,0.028,0.0344,0.0368,0.0448,0.0462,0.0529,0.0539,0.0604,0.0698,0.0633,0.0714,0.0619,0.0596,0.0471,0.0367,0.0443,0.0249,0.0242,0.0263,0.0255,0.0292,0.0284,0.0364,0.0364,0.0364,0.0364,0,0.0226,0.0263,0.0327,0.0407,0.0448,0.0497,0.062,0.0687,0.0721,0.0854,0.0891,0.0918,0.0886,0.0724,0.0651,0.0488,0.0379,0.0313,0.0295,0.0285,0.0159,0.0153,0.0184,0.0182,0.018,0.0178,0.0177,0,0.022,0.0247,0.0353,0.0428,0.0471,0.0564,0.0655,0.0732,0.0841,0.0986,0.1097,0.1102,0.1108,0.0908,0.0657,0.0403,0.0374,0.0234,0.0194,0.016,0.015,0.0147,0.0144,0.0221,0.022,0.0219,0.0219,0,0.0234,0.0256,0.0332,0.0466,0.0582,0.0724,0.0874,0.0991,0.1116,0.1224,0.1396,0.1409,0.1211,0.0984,0.0606,0.0436,0.0269,0.0208,0.0251,0.0249,0.019,0.0181,0.0178,0.0212,0.0213,0.0213,0.0214,0.0214,0.0257,0.0313,0.0418,0.0564,0.0708,0.0918,0.1036,0.1218,0.1411,0.1578,0.1588,0.1572,0.1293,0.0819,0.0529,0.022,0.0237,0.0107,0.0113,0.0119,0.0115,0.0055,0.0046,0.0046,0.0046,0.0046,0.0046,0,0.0333,0.0411,0.0533,0.0729,0.0906,0.0963,0.1223,0.1339,0.1573,0.1664,0.1731,0.1438,0.117,0.0851,0.0393,0.01,0.0101,0.0007,0.0079,0.0088,0.0095,0.0091,0.0015,0.0014,0.0014,0.0013,0,0,0.0382,0.0521,0.0602,0.0907,0.1038,0.1254,0.1404,0.1559,0.1659,0.1724,0.1686,0.1599,0.1241,0.0888,0.0523,0.0276,0.0244,0.0221,0.0275,0.0412,0.0422,0.018,0.0187,0,0,0,0,0]}],[{"header":{"parameterUnit":"m.s-1","parameterCategory":2,"la1":30.2991,"la2":30.254,"lo1":-89.0895,"lo2":-89.0444,"dy":0.0017,"dx":0.0017,"nx":28,"ny":28,"refTime":"2025-07-19T21:00:00:Z","depth":"4","parameterNumber":2,"parameterNumberName":"U-component_of_CURRENTS"},"data":[0,0,0,0,0,0,0,0,0,0,0,0,0,0,0,0,0,0,0,0,0,0,0,0,0,0,0,0,0,0,0,0,0,0,0,0,0,0,0,0,0,0,0,0,0,0,0,0,0,0,0,0,0,0,0,0,0,0,0.1332,0.1333,0,0.1381,0.1382,0.1382,0.1446,0.1447,0.1448,0.1449,0.1505,0.1506,0.1506,0,0,0,0,0,0,0,0,0,0,0,0,0,0.13,0.13,0.1332,0.1333,0.1333,0.1381,0.1382,0.1383,0.1446,0.1447,0.1449,0.145,0.1505,0.1506,0.1506,0,0,0,0,0,0,0,0,0,0,0,0,0,0.1327,0.13,0.1332,0.1371,0.1375,0.1381,0.1382,0.1383,0.1446,0.1447,0.1449,0.145,0.1505,0.1506,0.1506,0.1479,0,0,0.1509,0.1509,0,0,0,0,0,0,0,0,0.1326,0.1328,0.1365,0.1368,0.1373,0.141,0.1391,0.1415,0.1445,0.1418,0.1449,0.1451,0.1473,0.1476,0.1481,0.1481,0.1484,0.1509,0.1509,0.1509,0.151,0,0,0,0,0,0,0,0.1324,0.1327,0.1351,0.1365,0.137,0.1389,0.1394,0.1396,0.1436,0.1421,0.1426,0.1431,0.1475,0.1481,0.1483,0.1485,0.1509,0.1509,0.151,0.151,0.1563,0.1564,0,0,0,0,0,0,0.1316,0.1325,0.135,0.1353,0.1353,0.1388,0.1394,0.1396,0.1436,0.1444,0.143,0.1434,0.1479,0.1482,0.1485,0.1558,0.1509,0.151,0.1511,0.1562,0.1563,0.1564,0,0,0,0,0,0,0.1315,0.1318,0.1348,0.1341,0.1346,0.1387,0.1388,0.1396,0.1434,0.1443,0.1451,0.1464,0.148,0.1484,0.1528,0.1557,0.151,0.1511,0.1561,0.1562,0.1564,0.1637,0,0,0,0,0,0,0.1314,0.1317,0.1331,0.134,0.1346,0.1367,0.1387,0.1396,0.1433,0.144,0.1473,0.1479,0.1482,0.1527,0.1529,0.1557,0.1512,0.156,0.1562,0.1563,0.1633,0.1641,0.1647,0,0,0,0,0,0.1312,0.1313,0.1331,0.1335,0.1359,0.1367,0.1373,0.1407,0.1433,0.1448,0.1487,0.1479,0.1539,0.1529,0.153,0.156,0.1559,0.1561,0.1563,0.163,0.1639,0.1647,0,0,0,0,0,0,0.1304,0.132,0.134,0.1347,0.1367,0.1379,0.14,0.1421,0.1461,0.1484,0.1495,0.1503,0.1549,0.154,0.1528,0.1578,0.1546,0.1548,0.1596,0.1604,0.1611,0.1555,0.1512,0,0,0,0,0,0.1308,0.1316,0.1335,0.1343,0.1359,0.1387,0.1402,0.1427,0.1454,0.1476,0.1502,0.1529,0.155,0.157,0.1581,0.1609,0.163,0.1627,0.1634,0.164,0.1595,0.1696,0.1709,0.1572,0.1571,0.1571,0,0,0.1304,0.1317,0.1322,0.1344,0.1367,0.138,0.1401,0.1433,0.1448,0.1473,0.1521,0.1555,0.1563,0.1603,0.1621,0.1606,0.1696,0.1642,0.1648,0.1598,0.17,0.1714,0.1726,0.1573,0.1573,0.1572,0,0,0.1297,0.132,0.1331,0.1351,0.1391,0.1396,0.1411,0.1449,0.1478,0.1515,0.1549,0.1598,0.1624,0.1646,0.1654,0.1697,0.1729,0.1716,0.171,0.1812,0.1824,0.1835,0.1912,0.1929,0.1722,0.1722,0.1722,0,0.1307,0.1308,0.1336,0.1357,0.1369,0.1405,0.1417,0.1441,0.149,0.1522,0.1537,0.1618,0.1631,0.1682,0.1692,0.1711,0.1773,0.1686,0.1824,0.1834,0.1844,0.192,0.1938,0.1726,0.1725,0.1725,0.1725,0,0.1299,0.1318,0.1327,0.1357,0.1375,0.1389,0.1421,0.146,0.1497,0.1529,0.1605,0.1642,0.1695,0.1713,0.1704,0.1785,0.1809,0.1827,0.1807,0.1863,0.1939,0.1957,0.1731,0.173,0.1729,0.1728,0,0,0.1277,0.1313,0.1321,0.1337,0.1376,0.1384,0.1419,0.1454,0.1498,0.1558,0.1629,0.1655,0.1714,0.1722,0.1762,0.1815,0.1946,0.1843,0.1847,0.1923,0.2179,0.1974,0.1973,0.202,0.2023,0.2025,0.2217,0,0.1268,0.1275,0.1306,0.1323,0.1324,0.1378,0.1402,0.1454,0.1507,0.1592,0.1656,0.174,0.1712,0.1781,0.1829,0.1922,0.1989,0.189,0.2103,0.2108,0.1924,0.1984,0.2033,0.223,0.2234,0.2237,0.2239,0,0.1237,0.1251,0.1244,0.1296,0.1311,0.1339,0.1397,0.1437,0.1553,0.1614,0.1712,0.1791,0.1888,0.1873,0.2032,0.1989,0.2067,0.212,0.2131,0.1904,0.1931,0.2152,0.227,0.2268,0.2265,0.2263,0.2261,0,0.1142,0.1205,0.1185,0.12,0.1263,0.1305,0.1362,0.1454,0.1513,0.167,0.1746,0.1876,0.1984,0.2084,0.2158,0.2147,0.2325,0.2352,0.2236,0.2225,0.2324,0.2309,0.2462,0.2462,0.2461,0.2461,0.246,0,0.1064,0.107,0.1158,0.1145,0.1186,0.1271,0.1342,0.1415,0.1564,0.1654,0.1777,0.1866,0.2045,0.2161,0.2217,0.2248,0.2396,0.2211,0.2251,0.2354,0.234,0.2339,0.2322,0.2468,0.2466,0.2465,0.2464,0,0.0934,0.0972,0.0978,0.1076,0.1125,0.1162,0.1339,0.1409,0.1541,0.1676,0.1747,0.1927,0.2064,0.218,0.2367,0.2313,0.2378,0.2358,0.2442,0.2488,0.2207,0.2193,0.2277,0.2271,0.2266,0.2261,0.2258,0,0.0847,0.0827,0.0917,0.0953,0.101,0.1114,0.12,0.1373,0.1458,0.1681,0.174,0.1936,0.2036,0.2133,0.2243,0.2341,0.2309,0.2338,0.2243,0.2153,0.2186,0.2178,0.217,0.225,0.2249,0.2247,0.2246,0,0.0709,0.0743,0.0764,0.0848,0.094,0.1027,0.1175,0.123,0.1441,0.1576,0.1723,0.1821,0.1954,0.2062,0.2129,0.2188,0.231,0.2286,0.2296,0.2208,0.2123,0.2158,0.2156,0.2229,0.2231,0.2233,0.2234,0,0.063,0.0627,0.0681,0.0766,0.086,0.0939,0.1019,0.1173,0.1284,0.1544,0.1594,0.1783,0.196,0.1983,0.2044,0.2069,0.2056,0.2009,0.2034,0.2054,0.1876,0.1727,0.1734,0,0,0,0,0,0.0576,0.0585,0.0625,0.0706,0.0797,0.0876,0.1012,0.1105,0.1311,0.1385,0.1495,0.1615,0.1729,0.1811,0.1796,0.191,0.2032,0.1879,0.1982,0.2133,0.2153,0.1954,0,0,0,0,0,0,0.0534,0.0554,0.0592,0.0657,0.0724,0.0829,0.0918,0.1048,0.1091,0.1297,0.1367,0.152,0.164,0.1744,0.1776,0.1796,0.1826,0.1993,0.1988,0.2122,0.214,0.2156,0.1959,0,0,0,0,0]},{"header":{"parameterUnit":"m.s-1","parameterCategory":2,"la1":30.2991,"la2":30.254,"lo1":-89.0895,"lo2":-89.0444,"dy":0.0017,"dx":0.0017,"nx":28,"ny":28,"refTime":"2025-07-19T21:00:00:Z","depth":"4","parameterNumber":3,"parameterNumberName":"V-component_of_CURRENTS"},"data":[0,0,0,0,0,0,0,0,0,0,0,0,0,0,0,0,0,0,0,0,0,0,0,0,0,0,0,0,0,0,0,0,0,0,0,0,0,0,0,0,0,0,0,0,0,0,0,0,0,0,0,0,0,0,0,0,0,0,-0.0009,-0.001,0,-0.003,-0.003,-0.0031,-0.0044,-0.0044,-0.0044,-0.0044,-0.0067,-0.0067,-0.0068,0,0,0,0,0,0,0,0,0,0,0,0,0,-0.0012,-0.0012,-0.0009,-0.001,-0.001,-0.003,-0.003,-0.0031,-0.0044,-0.0044,-0.0044,-0.0044,-0.0066,-0.0067,-0.0068,0,0,0,0,0,0,0,0,0,0,0,0,0,-0.0019,-0.0012,-0.0009,-0.0019,-0.002,-0.003,-0.003,-0.0031,-0.0044,-0.0044,-0.0044,-0.0045,-0.0066,-0.0067,-0.0068,-0.0069,0,0,-0.007,-0.007,0,0,0,0,0,0,0,0,-0.0019,-0.0019,-0.0018,-0.0019,-0.002,-0.0035,-0.0039,-0.0044,-0.0044,-0.0035,-0.0044,-0.0045,-0.0056,-0.0058,-0.0061,-0.007,-0.0071,-0.007,-0.007,-0.0071,-0.0071,0,0,0,0,0,0,0,-0.0018,-0.0019,-0.0017,-0.0018,-0.0019,-0.0033,-0.0034,-0.004,-0.0044,-0.0036,-0.0037,-0.0039,-0.0057,-0.006,-0.0062,-0.0071,-0.007,-0.0071,-0.0071,-0.0071,-0.0083,-0.0083,0,0,0,0,0,0,-0.0014,-0.0018,-0.0017,-0.0018,-0.002,-0.0033,-0.0034,-0.003,-0.0044,-0.0047,-0.0039,-0.004,-0.0059,-0.0061,-0.0062,-0.0056,-0.0071,-0.0071,-0.0072,-0.0083,-0.0083,-0.0083,0,0,0,0,0,0,-0.0014,-0.0014,-0.0016,-0.0019,-0.002,-0.0032,-0.0028,-0.003,-0.0034,-0.0047,-0.0049,-0.004,-0.0059,-0.0061,-0.0066,-0.0058,-0.0072,-0.0072,-0.0083,-0.0083,-0.0083,-0.005,0,0,0,0,0,0,-0.0014,-0.0013,-0.0011,-0.0019,-0.002,-0.0015,-0.0028,-0.003,-0.0035,-0.0036,-0.0049,-0.0051,-0.0059,-0.0065,-0.0067,-0.0059,-0.0073,-0.0083,-0.0083,-0.0083,-0.0051,-0.0048,-0.0046,0,0,0,0,0,-0.0014,-0.0004,-0.0011,-0.0011,-0.0016,-0.0015,-0.0016,-0.0026,-0.0035,-0.0031,-0.0043,-0.005,-0.0065,-0.0066,-0.0068,-0.006,-0.0083,-0.0083,-0.0083,-0.0052,-0.0049,-0.0046,0,0,0,0,0,0,-0.0004,-0.0005,-0.0012,-0.0004,-0.0008,-0.0017,-0.0016,-0.0024,-0.0031,-0.0034,-0.0049,-0.0051,-0.0053,-0.0062,-0.0063,-0.0063,-0.0075,-0.0076,-0.0051,-0.0049,-0.0046,-0.0026,-0.0074,0,0,0,0,0,-0.0001,0.0004,-0.0,0.0004,0.0005,-0.0007,-0.0009,-0.0015,-0.0022,-0.0025,-0.0034,-0.0046,-0.0054,-0.0056,-0.0064,-0.0063,-0.0082,-0.006,-0.0058,-0.0055,-0.0041,-0.0072,-0.0071,-0.0082,-0.0082,-0.0082,0,0,0.0003,0.0002,0.0004,0.0006,0.0002,0.0019,-0.0008,-0.0007,0.0008,-0.0026,-0.0014,-0.0038,-0.0053,-0.0052,-0.0053,-0.0058,-0.0064,-0.0055,-0.0053,-0.0039,-0.0072,-0.0071,-0.007,-0.0081,-0.0081,-0.0081,0,0,0.0023,0.0015,0.0031,0.0036,0.0034,0.0031,0.0033,0.0027,0.0024,0.0027,0.0005,-0.0013,-0.0021,-0.0031,-0.0037,-0.0027,-0.0053,-0.0033,0.0,-0.0031,-0.003,-0.003,-0.0058,-0.0061,-0.0029,-0.0029,-0.0029,0,0.0028,0.0051,0.0034,0.0058,0.007,0.0042,0.0071,0.0065,0.0057,0.0054,0.0038,0.0006,-0.0007,-0.0012,-0.0005,-0.002,-0.0043,-0.0009,-0.0027,-0.0027,-0.0027,-0.0057,-0.006,-0.0027,-0.0027,-0.0028,-0.0028,0,0.0066,0.0087,0.0098,0.0122,0.013,0.0147,0.0144,0.0144,0.0129,0.0115,0.0097,0.0062,0.0045,0.0032,0.0021,0.0013,-0.0005,-0.0024,-0.0033,-0.0024,-0.0056,-0.006,-0.0025,-0.0025,-0.0026,-0.0026,0,0,0.0084,0.012,0.0127,0.0156,0.0169,0.0185,0.0202,0.0209,0.0218,0.0183,0.0181,0.0152,0.0113,0.0104,0.0069,0.0045,0.0021,0.0018,0.0016,-0.0007,-0.0048,-0.0053,-0.0058,-0.0005,-0.0005,-0.0005,-0.0073,0,0.0124,0.0188,0.0191,0.0253,0.0289,0.0276,0.0296,0.0293,0.0274,0.0261,0.0201,0.0187,0.0146,0.0133,0.0098,0.0039,0.0014,0.0042,-0.0056,-0.0058,-0.0061,-0.0062,-0.0006,-0.0076,-0.0077,-0.0077,-0.0078,0,0.017,0.021,0.0281,0.033,0.0343,0.0371,0.0396,0.041,0.0376,0.0358,0.0313,0.0258,0.0211,0.0174,0.0075,0.0092,0.0037,-0.0014,-0.0019,-0.0032,-0.0069,-0.0086,-0.0085,-0.0084,-0.0084,-0.0083,-0.0083,0,0.0211,0.0275,0.0337,0.0358,0.0404,0.0429,0.0445,0.0437,0.0457,0.0418,0.0411,0.0325,0.029,0.0198,0.0085,0.0084,-0.0031,-0.005,-0.0108,-0.011,-0.01,-0.01,-0.0105,-0.0105,-0.0105,-0.0105,-0.0105,0,0.0259,0.031,0.0364,0.0405,0.0471,0.0481,0.0537,0.0533,0.0531,0.0549,0.0464,0.0444,0.0298,0.0203,0.0099,-0.0022,-0.0025,-0.0096,-0.0125,-0.0086,-0.0083,-0.0103,-0.0102,-0.0107,-0.0107,-0.0106,-0.0106,0,0.0294,0.0328,0.0413,0.0479,0.0497,0.055,0.0611,0.0646,0.0633,0.0649,0.0641,0.0539,0.0414,0.0257,0.0101,0.0011,-0.0111,-0.0148,-0.0095,-0.0121,-0.0171,-0.0167,-0.0214,-0.0215,-0.0215,-0.0216,-0.0216,0,0.0312,0.0363,0.0472,0.0522,0.0555,0.0629,0.0674,0.0698,0.0724,0.0704,0.07,0.0595,0.0506,0.0276,0.0111,-0.0099,-0.0123,-0.0185,-0.0173,-0.0157,-0.0181,-0.0176,-0.0172,-0.0217,-0.0217,-0.0217,-0.0217,0,0.0354,0.0403,0.0474,0.058,0.065,0.0728,0.078,0.0808,0.0822,0.0821,0.0761,0.0634,0.0488,0.0289,0.0122,-0.0027,-0.015,-0.0192,-0.0191,-0.018,-0.0162,-0.0184,-0.0179,-0.0219,-0.0219,-0.0219,-0.0219,0,0.0383,0.0444,0.054,0.0628,0.0713,0.0776,0.0817,0.0838,0.0865,0.0829,0.081,0.0651,0.056,0.0326,0.0169,0.0018,-0.0013,-0.0054,-0.0061,-0.0061,-0.0002,0.0044,0.0032,0,0,0,0,0,0.0407,0.0478,0.0572,0.0671,0.0752,0.08,0.0856,0.0883,0.0894,0.0867,0.0841,0.0706,0.0476,0.0365,0.0216,0.0148,-0.0051,-0.0032,-0.0104,-0.023,-0.0228,-0.0187,0,0,0,0,0,0,0.0428,0.0521,0.0577,0.0674,0.0742,0.0831,0.0872,0.0887,0.0859,0.0848,0.0723,0.0678,0.0444,0.0567,0.0218,0.017,0.0106,-0.0139,-0.0142,-0.0232,-0.0229,-0.0228,-0.0184,0,0,0,0,0]}]]